Stations météo

réclame
Mon MeteoGroup
Hoogeveen aws, Pays-Bas (6279): Température de l'air & dewpoint: 15.10.2018 16:00:00 - 21.10.2018 16:00:00 (CEST)Hoogeveen aws, Pays-Bas (6279): Température de l'air 5cm: 15.10.2018 16:00:00 - 21.10.2018 16:00:00 (CEST)Hoogeveen aws, Pays-Bas (6279): Vitesse du vent & gusts: 15.10.2018 16:00:00 - 21.10.2018 16:00:00 (CEST)Hoogeveen aws, Pays-Bas (6279): Direction du vent: 15.10.2018 16:00:00 - 21.10.2018 16:00:00 (CEST)Hoogeveen aws, Pays-Bas (6279): reduced air pressure: 15.10.2018 16:00:00 - 21.10.2018 16:00:00 (CEST)Hoogeveen aws, Pays-Bas (6279): visibility: 15.10.2018 16:00:00 - 21.10.2018 16:00:00 (CEST)Hoogeveen aws, Pays-Bas (6279): Quantités de précipitations: 15.10.2018 16:00:00 - 21.10.2018 16:00:00 (CEST)
Date & Time tt [°C] td [°C] tt 5cm [°C] ff [km/h] ff [knt] fx [km/h] fx [knt] dd ppp [hPa] vv [km] rr [mm]
21.10.2018 16:00:00 15,0 8,8 15,7 18 10 25 14 SW 1027,1 16 0,0
21.10.2018 15:00:00 15,1 9,1 15,8 18 10 25 14 SSW 1027,5 17 0,0
21.10.2018 14:00:00 14,8 9,2 15,4 18 10 25 14 SSW 1028,0 13 0,0
21.10.2018 13:00:00 14,4 9,2 14,9 18 10 25 14 SSW 1028,5 14 0,0
21.10.2018 12:00:00 13,6 9,2 14,2 18 10 25 14 SW 1029,0 14 0,0
21.10.2018 11:00:00 12,2 9,3 12,5 11 6 18 10 SSW 1029,1 11 0,0
21.10.2018 10:00:00 10,9 9,4 11,0 11 6 14 8 S 1029,3 7 0,0
21.10.2018 09:00:00 9,2 8,4 8,5 7 4 11 6 S 1028,8 4,3 0,0
21.10.2018 08:00:00 9,6 8,8 9,0 7 4 11 6 SSW 1028,6 5 0,0
21.10.2018 07:00:00 10,0 9,0 9,7 7 4 11 6 SW 1028,7 6 0,0
21.10.2018 06:00:00 10,5 9,4 10,4 7 4 11 6 SW 1029,0 6 0,0
21.10.2018 05:00:00 10,8 9,5 10,7 7 4 11 6 SW 1029,3 7 0,0
21.10.2018 04:00:00 10,7 9,3 10,6 7 4 7 4 SW 1029,5 7 0,0
21.10.2018 03:00:00 10,6 9,3 10,5 7 4 11 6 SSW 1029,7 8 0,0
21.10.2018 02:00:00 10,9 9,3 10,7 7 4 11 6 SW 1029,7 8 0,0
21.10.2018 01:00:00 10,9 9,4 10,9 7 4 11 6 SW 1030,2 9 0,0
21.10.2018 00:00:00 11,0 9,5 11,0 7 4 11 6 SW 1030,5 9 0,0
20.10.2018 23:00:00 11,1 9,6 10,9 7 4 11 6 SW 1030,6 9 0,0
20.10.2018 22:00:00 11,1 9,6 10,5 7 4 11 6 SW 1030,6 10 0,0
20.10.2018 21:00:00 8,9 8,4 8,2 4 2 7 4 SSW 1030,7 7 0,0
20.10.2018 20:00:00 8,5 8,1 6,8 4 2 7 4 WSW 1030,7 6 0,0
20.10.2018 19:00:00 11,2 9,0 10,7 7 4 14 8 WSW 1030,3 14 0,0
20.10.2018 18:00:00 13,3 9,7 13,1 11 6 18 10 WSW 1030,3 18 0,0
20.10.2018 17:00:00 14,9 9,5 15,3 11 6 22 12 W 1030,7 22 0,0
20.10.2018 16:00:00 14,7 9,6 15,2 14 8 22 12 W 1030,8 24 0,0
20.10.2018 15:00:00 14,7 9,4 15,0 14 8 22 12 W 1030,7 28 0,0
20.10.2018 14:00:00 14,5 8,9 15,4 14 8 22 12 W 1030,9 28 0,0
20.10.2018 13:00:00 14,4 7,6 15,4 14 8 25 14 W 1031,2 32 0,0
20.10.2018 12:00:00 13,6 6,5 14,4 14 8 22 12 W 1031,3 32 0,0
20.10.2018 11:00:00 10,2 6,9 10,3 7 4 18 10 SW 1030,9 25 0,0
20.10.2018 10:00:00 6,6 5,5 6,3 11 6 14 8 SSW 1030,3 12 0,0
20.10.2018 09:00:00 4,5 4,2 3,4 4 2 7 4 S 1030,4 8 0,0
20.10.2018 08:00:00 3,1 2,7 2,3 4 2 7 4 SSW 1029,6 9 0,0
20.10.2018 07:00:00 1,4 1,2 -0,2 4 2 4 2 SW 1029,4 5 0,0
20.10.2018 06:00:00 0,7 0,7 -1,0 4 2 4 2 WSW 1029,5 1,8 0,0
20.10.2018 05:00:00 0,2 0,0 -1,6 4 2 4 2 NNE 1029,2 0,3 0,0
20.10.2018 04:00:00 0,9 0,9 -1,0 0 0 4 2 N 1028,3 0,2 0,0
20.10.2018 03:00:00 1,7 1,7 0,0 4 2 7 4 W 1029,0 0,7 0,0
20.10.2018 02:00:00 1,7 1,6 -0,4 0 0 7 4 N 1028,3 1,9 0,0
20.10.2018 01:00:00 2,5 2,4 0,4 0 0 7 4 N 1028,0 0,9 0,0
20.10.2018 00:00:00 3,2 3,1 2,0 4 2 7 4 NW 1027,7 1,1 0,0
19.10.2018 23:00:00 5,0 4,6 4,0 4 2 7 4 WNW 1027,6 9 0,0
19.10.2018 22:00:00 5,4 4,9 3,5 4 2 7 4 N 1027,5 13 0,0
19.10.2018 21:00:00 5,9 5,1 3,6 4 2 7 4 NNW 1027,0 12 0,0
19.10.2018 20:00:00 6,9 5,7 4,4 4 2 11 6 NNE 1026,7 19 0,0
19.10.2018 19:00:00 7,6 5,3 5,5 7 4 11 6 N 1026,2 22 0,0
19.10.2018 18:00:00 11,2 6,1 10,4 7 4 14 8 NE 1025,5 33 0,0
19.10.2018 17:00:00 12,6 6,1 13,0 11 6 14 8 NE 1025,4 36 0,0
19.10.2018 16:00:00 13,2 6,1 14,4 7 4 18 10 NE 1025,6 34 0,0
19.10.2018 15:00:00 13,2 6,6 14,0 11 6 18 10 NE 1026,1 36 0,0
19.10.2018 14:00:00 12,4 6,4 13,2 11 6 18 10 ENE 1026,3 34 0,0
19.10.2018 13:00:00 12,2 6,3 13,0 11 6 18 10 E 1026,5 35 0,0
19.10.2018 12:00:00 11,6 7,5 12,0 7 4 14 8 ENE 1026,7 29 0,0
19.10.2018 11:00:00 9,6 7,0 10,0 7 4 11 6 ENE 1026,9 23 0,0
19.10.2018 10:00:00 8,2 6,8 8,0 7 4 14 8 ENE 1027,1 24 0,0
19.10.2018 09:00:00 5,8 5,6 5,4 4 2 7 4 ENE 1027,0 13 0,0
19.10.2018 08:00:00 3,2 3,2 1,9 4 2 11 6 N 1026,7 7 0,0
19.10.2018 07:00:00 3,3 3,3 1,0 0 0 7 4 N 1026,4 1,2 0,0
19.10.2018 06:00:00 2,8 2,7 0,6 7 4 7 4 NNE 1026,5 5 0,0
19.10.2018 05:00:00 3,6 3,6 1,4 7 4 7 4 NNE 1026,4 7 0,0
19.10.2018 04:00:00 4,1 3,9 1,4 4 2 7 4 NNE 1026,6 4,8 0,0
19.10.2018 03:00:00 4,0 3,9 1,4 7 4 7 4 NNE 1026,6 1,2 0,0
19.10.2018 02:00:00 4,2 4,2 2,2 7 4 7 4 NNE 1026,6 0,4 0,0
19.10.2018 01:00:00 4,4 4,2 2,1 4 2 7 4 NE 1026,9 1,0 0,0
19.10.2018 00:00:00 5,5 5,3 4,2 7 4 11 6 NE 1027,2 16 0,0
18.10.2018 23:00:00 6,7 6,0 5,7 7 4 11 6 NNE 1027,2 24 0,0
18.10.2018 22:00:00 6,7 5,8 5,2 7 4 11 6 NNE 1027,0 28 0,0
18.10.2018 21:00:00 7,2 5,9 5,6 7 4 11 6 NNE 1026,7 44 0,0
18.10.2018 20:00:00 8,2 5,9 6,5 7 4 11 6 NNE 1026,4 47 0,0
18.10.2018 19:00:00 9,9 6,2 9,1 7 4 18 10 NNE 1025,9 49 0,0
18.10.2018 18:00:00 13,3 7,7 13,3 11 6 32 18 NE 1025,3 45 0,0
18.10.2018 17:00:00 13,8 7,7 13,8 18 10 29 16 NE 1025,1 49 0,0
18.10.2018 16:00:00 15,4 8,0 15,9 18 10 29 16 NE 1025,1 45 0,0
18.10.2018 15:00:00 15,9 8,1 14,9 14 8 32 18 N 1025,0 37 0,0
18.10.2018 14:00:00 15,7 8,6 16,1 18 10 32 18 NNE 1025,2 39 0,0
18.10.2018 13:00:00 16,2 9,6 16,9 18 10 32 18 NNE 1025,2 36 0,0
18.10.2018 12:00:00 14,5 9,7 14,9 18 10 32 18 N 1025,2 31 0,0
18.10.2018 11:00:00 13,9 10,7 14,3 22 12 32 18 N 1024,8 25 0,0
18.10.2018 10:00:00 12,5 11,1 12,4 14 8 18 10 N 1024,5 16 0,0
18.10.2018 09:00:00 12,6 11,7 12,5 11 6 18 10 N 1023,9 14 0,0
18.10.2018 08:00:00 12,7 12,2 12,5 7 4 18 10 N 1023,4 12 0,0
18.10.2018 07:00:00 12,7 12,5 12,7 7 4 14 8 NNW 1022,9 2,9 0,0
18.10.2018 06:00:00 12,4 12,3 12,3 7 4 11 6 NNW 1022,7 3,6 0,0
18.10.2018 05:00:00 11,8 11,5 11,8 7 4 11 6 NW 1022,7 2,5 0,0
18.10.2018 04:00:00 11,4 10,9 11,2 7 4 11 6 NW 1022,5 7 0,0
18.10.2018 03:00:00 10,2 9,6 8,9 4 2 7 4 W 1022,5 4,7 0,0
18.10.2018 02:00:00 11,7 10,5 11,1 4 2 11 6 NW 1022,3 12 0,0
18.10.2018 01:00:00 12,7 11,3 12,6 7 4 7 4 NNW 1022,0 14 0,0
18.10.2018 00:00:00 12,6 11,5 12,4 7 4 7 4 NNW 1021,9 12 0,0
17.10.2018 23:00:00 12,9 11,4 12,5 7 4 14 8 N 1021,6 16 0,0
17.10.2018 22:00:00 13,6 11,5 13,3 11 6 14 8 NNW 1021,4 18 0,0
17.10.2018 21:00:00 14,3 12,1 13,8 11 6 14 8 N 1020,9 22 0,0
17.10.2018 20:00:00 13,6 11,7 11,7 11 6 14 8 NNW 1020,4 22 0,0
17.10.2018 19:00:00 14,9 12,6 13,7 11 6 18 10 NNW 1020,0 19 0,0
17.10.2018 18:00:00 16,4 12,9 16,1 11 6 25 14 NNW 1019,5 25 0,0
17.10.2018 17:00:00 19,7 13,2 19,7 11 6 14 8 W 1019,1 33 0,0
17.10.2018 16:00:00 20,0 13,3 20,3 11 6 18 10 W 1019,0 30 0,0
17.10.2018 15:00:00 19,6 13,9 20,6 11 6 14 8 W 1018,9 16 0,0
17.10.2018 14:00:00 19,4 14,5 19,8 11 6 18 10 W 1019,0 13 0,0
17.10.2018 13:00:00 18,2 14,5 19,2 11 6 18 10 W 1019,1 10 0,0
17.10.2018 12:00:00 17,6 14,0 18,1 11 6 18 10 W 1019,3 9 0,0
17.10.2018 11:00:00 16,0 12,5 16,5 4 2 11 6 WSW 1019,0 9 0,0
17.10.2018 10:00:00 12,9 11,4 12,4 7 4 11 6 SSW 1018,8 7 0,0
17.10.2018 09:00:00 8,9 8,4 7,5 4 2 7 4 SSW 1018,5 3,4 0,0
17.10.2018 08:00:00 10,0 9,2 7,8 4 2 7 4 SSE 1018,0 6 0,0
17.10.2018 07:00:00 10,7 9,8 8,5 4 2 7 4 S 1018,0 7 0,0
17.10.2018 06:00:00 10,9 9,8 8,8 4 2 11 6 SSE 1017,9 8 0,0
17.10.2018 05:00:00 13,4 10,8 10,0 7 4 11 6 S 1017,6 13 0,0
17.10.2018 04:00:00 12,9 10,5 10,7 7 4 11 6 SSE 1017,6 12 0,0
17.10.2018 03:00:00 12,6 10,5 10,8 7 4 11 6 SSE 1017,7 12 0,0
17.10.2018 02:00:00 12,8 10,7 11,0 7 4 7 4 SSE 1018,0 12 0,0
17.10.2018 01:00:00 13,5 10,9 11,4 4 2 14 8 SE 1018,0 14 0,0
17.10.2018 00:00:00 11,3 10,3 9,1 7 4 11 6 SE 1018,3 9 0,0
16.10.2018 23:00:00 11,9 11,4 9,9 4 2 7 4 SE 1018,6 6 0,0
16.10.2018 22:00:00 12,5 11,7 10,7 0 0 7 4 N 1018,8 8 0,0
16.10.2018 21:00:00 14,0 12,7 12,0 4 2 7 4 ESE 1018,6 14 0,0
16.10.2018 20:00:00 15,1 12,4 13,5 4 2 4 2 SE 1018,5 17 0,0
16.10.2018 19:00:00 18,0 12,9 16,0 0 0 7 4 N 1018,5 27 0,0
16.10.2018 18:00:00 21,7 12,6 20,7 7 4 14 8 SSW 1018,2 38 0,0
16.10.2018 17:00:00 22,7 12,6 22,6 11 6 22 12 SSW 1017,9 34 0,0
16.10.2018 16:00:00 23,7 12,7 24,3 11 6 18 10 SW 1018,1 28 0,0
16.10.2018 15:00:00 23,8 13,1 24,5 11 6 22 12 SW 1018,1 28 0,0
16.10.2018 14:00:00 23,0 14,5 24,2 7 4 18 10 S 1018,2 19 0,0
16.10.2018 13:00:00 21,6 14,7 22,8 7 4 14 8 SSE 1018,2 12 0,0
16.10.2018 12:00:00 19,6 15,0 20,0 7 4 11 6 S 1018,3 10 0,0
16.10.2018 11:00:00 17,0 14,0 17,2 7 4 11 6 SSW 1018,2 7 0,0
16.10.2018 10:00:00 15,0 13,8 14,7 7 4 11 6 SW 1018,2 7 0,0
16.10.2018 09:00:00 11,5 11,5 10,6 4 2 7 4 SW 1018,1 0,9 0,0
16.10.2018 08:00:00 10,9 10,9 9,4 4 2 4 2 ESE 1017,4 0,9 0,0
16.10.2018 07:00:00 11,5 11,5 9,1 0 0 4 2 N 1017,0 1,1 0,0
16.10.2018 06:00:00 11,1 11,1 10,2 0 0 7 4 N 1016,7 3,0 0,0
16.10.2018 05:00:00 11,3 11,2 10,2 7 4 7 4 SW 1016,8 0,5 0,0
16.10.2018 04:00:00 11,6 11,6 10,6 0 0 4 2 N 1016,4 0,3 0,0
16.10.2018 03:00:00 12,6 12,5 11,3 0 0 4 2 N 1016,1 0,5 0,0
16.10.2018 02:00:00 13,3 13,3 11,1 4 2 4 2 SE 1015,7 0,2 0,0
16.10.2018 01:00:00 14,0 13,9 12,7 0 0 4 2 N 1015,4 0,8 0,0
16.10.2018 00:00:00 14,5 14,4 13,9 0 0 7 4 N 1015,2 8 0,0
15.10.2018 23:00:00 15,0 14,3 14,3 7 4 11 6 NW 1015,0 11 0,0
15.10.2018 22:00:00 15,8 15,0 15,1 0 0 7 4 N 1014,5 8 0,0
15.10.2018 21:00:00 16,8 14,6 15,9 4 2 14 8 SSW 1014,4 20 0,3
15.10.2018 20:00:00 18,5 14,1 17,6 18 10 25 14 SW 1014,0 16 0,1
15.10.2018 19:00:00 19,2 12,8 17,8 7 4 18 10 SSW 1013,5 45 0,0
15.10.2018 18:00:00 21,8 12,9 21,6 14 8 22 12 SW 1012,9 48 0,0
15.10.2018 17:00:00 21,9 13,7 21,9 14 8 25 14 SW 1012,4 45 0,0
15.10.2018 16:00:00 22,0 13,6 21,6 14 8 29 16 SSW 1012,1 39 0,0

tt = Température de l'air
td = dewpoint
tt 5cm = Température de l'air 5cm
ff = Vitesse du vent
fx = gusts
dd = Direction du vent
ppp = reduced air pressure
vv = visibility
rr = Quantités de précipitations

stations d'obs. à proximité